Location: Godiavel Galaoual
(15.2485°N, 12.6604°W)
Time: 12:43:24
(UTC+00:00)

LightSail 2 - Pass Details

Date: 04 June 2020
Orbit: 692 x 720 km, 24.0° (Epoch: 14 July)

Event Time Altitude Azimuth Distance (km) Brightness Sun altitude
Rises 20:12:45 0° 211° (SSW) 3,043 8.5 -12.5°
Reaches altitude 10° 20:16:11 10° 187° (S) 2,128 7.4 -13.3°
Enters shadow 20:18:58 15° 153° (SSE) 1,825 6.8 -13.9°
